Location: Duncanville
(32.6518°N, 96.9083°W)
Time: 10:08:46
(UTC+00:00)

Cosmos 1674 Rocket - Pass Details

Date: 11 February 2026
Orbit: 596 x 622 km, 82.5° (Epoch: 8 March)

Event Time Altitude Azimuth Distance (km) Brightness Sun altitude
Rises 12:20:48 0° 344° (NNW) 2,901 6.8 -11.8°
Reaches altitude 10° 12:23:08 10° 338° (NNW) 1,988 5.9 -11.3°
Maximum altitude 12:27:15 40° 268° (W) 906 3.9 -10.5°
Drops below altitude 10° 12:31:20 10° 199° (SSW) 1,964 6.1 -9.6°
Sets 12:33:37 0° 191° (SSW) 2,860 7.0 -9.2°
